This is the latest recevied weather packets stored in our database for station/object KD0RII. If no packets are shown the sender has not sent any weather packets the latest 10 day(s).
| Time | Temp. | Humidity | Pressure | Rain* | Wind** | Luminosity | Snow |
|---|---|---|---|---|---|---|---|
| 1777743135 | 16.67° C | 33% | 1023.7 hPa | 0 mm | - | 780 W/m² | - |
| 1777742833 | 16.67° C | 34% | 1023.8 hPa | 0 mm | - | 773 W/m² | - |
| 1777742529 | 17.22° C | 34% | 1023.9 hPa | 0 mm | - | 766 W/m² | - |
| 1777742224 | 17.22° C | 37% | 1023.6 hPa | 0 mm | - | 759 W/m² | - |
| 1777741921 | 16.11° C | 33% | 1023.8 hPa | 0 mm | - | 748 W/m² | - |
| 1777741619 | 16.67° C | 33% | 1023.8 hPa | 0 mm | - | 741 W/m² | - |
| 1777741316 | 16.67° C | 38% | 1023.9 hPa | 0 mm | - | 733 W/m² | - |
| 1777741012 | 16.67° C | 35% | 1023.9 hPa | 0 mm | - | 722 W/m² | - |
| 1777740709 | 16.11° C | 34% | 1024.2 hPa | 0 mm | - | 713 W/m² | - |
| 1777740405 | 16.11° C | 35% | 1023.8 hPa | 0 mm | - | 703 W/m² | - |
| 1777740102 | 16.11° C | 31% | 1023.8 hPa | 0 mm | - | 696 W/m² | - |
| 1777739798 | 15.56° C | 36% | 1023.8 hPa | 0 mm | - | 680 W/m² | - |
| 1777739495 | 15.56° C | 38% | 1023.9 hPa | 0 mm | - | 669 W/m² | - |
| 1777739191 | 16.11° C | 34% | 1024.1 hPa | 0 mm | - | 659 W/m² | - |
| 1777738889 | 15.56° C | 34% | 1023.8 hPa | 0 mm | - | 647 W/m² | - |
| 1777738586 | 15.56° C | 34% | 1023.9 hPa | 0 mm | - | 635 W/m² | - |
| 1777738283 | 15.56° C | 35% | 1023.8 hPa | 0 mm | - | 626 W/m² | - |
| 1777737981 | 15.56° C | 36% | 1024 hPa | 0 mm | - | 611 W/m² | - |
| 1777737679 | 15.56° C | 34% | 1024 hPa | 0 mm | - | 599 W/m² | - |
| 1777737377 | 16.11° C | 36% | 1023.9 hPa | 0 mm | - | 588 W/m² | - |
| 1777737074 | 15.56° C | 34% | 1023.9 hPa | 0 mm | - | 573 W/m² | - |
| 1777736770 | 15° C | 36% | 1024.1 hPa | 0 mm | - | 558 W/m² | - |
| 1777736142 | 15° C | 36% | 1023.8 hPa | 0 mm | - | 532 W/m² | - |
| 1777735834 | 14.44° C | 38% | 1023.9 hPa | 0 mm | - | 519 W/m² | - |
| 1777735531 | 14.44° C | 36% | 1023.8 hPa | 0 mm | - | 505 W/m² | - |
* Rain latest hour (hover to see other rain measurements)
** Current wind speed in m/s (hover to see current wind gust speed)